KN5D-2 Weather Reports


Display with metric or nautical units.
time (UTC)temp
F
wind
direction
speed
MPH
gust
MPH
rain 1hr
in
rain 24hr
in
rain mn
in
humidity
%
barometer
mb
20211203224711 77 231 0.0 0.0 0.00 0.01 0.01 63 1015.8
20211203224211 78 177 0.0 0.0 0.00 0.01 0.01 64 1015.9
20211203223711 78 178 1.0 0.0 0.00 0.01 0.01 63 1015.8
20211203223211 78 178 1.0 5.0 0.00 0.01 0.01 64 1015.8
20211203222711 78 172 1.0 6.0 0.00 0.01 0.01 64 1015.9
20211203222211 79 182 0.0 0.0 0.00 0.01 0.01 64 1015.9
20211203221711 79 198 0.0 0.0 0.00 0.01 0.01 64 1015.9
20211203221211 79 200 0.0 0.0 0.00 0.01 0.01 64 1015.9
20211203220711 79 185 0.0 0.0 0.00 0.01 0.01 63 1015.9
20211203220211 79 57 0.0 0.0 0.00 0.01 0.01 64 1015.8
20211203215711 80 74 0.0 0.0 0.00 0.01 0.01 63 1015.8
20211203215211 80 175 0.0 0.0 0.00 0.01 0.01 63 1015.8
20211203214711 80 162 0.0 0.0 0.00 0.01 0.01 63 1016.0
20211203214211 79 59 0.0 0.0 0.00 0.01 0.01 63 1015.9
20211203213711 79 185 0.0 0.0 0.00 0.01 0.01 63 1015.9
20211203213211 79 186 0.0 0.0 0.00 0.01 0.01 64 1015.9
20211203212711 79 186 0.0 0.0 0.00 0.01 0.01 64 1015.9
20211203212211 79 188 0.0 0.0 0.00 0.01 0.01 64 1016.0
20211203211711 80 217 0.0 0.0 0.00 0.01 0.01 64 1015.9
20211203211211 79 207 0.0 0.0 0.00 0.01 0.01 63 1016.0
20211203210711 79 178 0.0 0.0 0.00 0.01 0.01 64 1015.9
20211203210211 79 169 0.0 0.0 0.00 0.01 0.01 64 1015.9
20211203205711 79 172 0.0 0.0 0.00 0.01 0.01 64 1015.9
20211203205211 80 193 0.0 0.0 0.00 0.01 0.01 64 1016.0
20211203204711 79 175 0.0 0.0 0.00 0.01 0.01 64 1016.0
20211203204211 79 173 0.0 0.0 0.00 0.01 0.01 65 1016.0
20211203203711 79 193 0.0 0.0 0.00 0.01 0.01 65 1016.0
20211203203211 79 189 0.0 0.0 0.00 0.01 0.01 65 1016.0
20211203202711 80 180 1.0 0.0 0.00 0.01 0.01 64 1016.0
20211203202211 80 170 1.0 3.0 0.00 0.01 0.01 64 1016.0
20211203201711 80 179 1.0 4.0 0.00 0.01 0.01 64 1016.1
20211203201211 80 173 0.0 0.0 0.00 0.01 0.01 64 1016.0
20211203200711 80 175 0.0 0.0 0.00 0.01 0.01 63 1016.2
20211203200211 80 231 0.0 0.0 0.00 0.01 0.01 64 1016.1
20211203195711 80 162 0.0 0.0 0.00 0.01 0.01 63 1016.2
20211203195211 80 191 0.0 0.0 0.00 0.01 0.01 63 1016.2
20211203194711 80 167 0.0 0.0 0.00 0.01 0.01 63 1016.2
20211203194211 80 201 2.0 0.0 0.00 0.01 0.01 63 1016.4
20211203193711 80 261 3.0 7.0 0.00 0.01 0.01 64 1016.4
20211203193211 81 192 3.0 7.0 0.00 0.01 0.01 63 1016.4
20211203192711 81 189 1.0 10.0 0.00 0.01 0.01 63 1016.4
20211203192211 81 208 0.0 0.0 0.00 0.01 0.01 63 1016.4
20211203191711 81 208 1.0 0.0 0.00 0.01 0.01 62 1016.5
20211203191211 80 167 2.0 8.0 0.00 0.01 0.01 61 1016.5
20211203190711 80 209 2.0 10.0 0.00 0.01 0.01 60 1016.6
20211203190211 80 201 1.0 4.0 0.00 0.01 0.01 60 1016.7
20211203185711 79 209 2.0 8.0 0.00 0.01 0.01 57 1016.7
20211203185211 79 180 4.0 6.0 0.00 0.01 0.01 58 1016.8
20211203184711 78 207 4.0 9.0 0.00 0.01 0.01 59 1016.9
20211203184211 79 198 3.0 8.0 0.00 0.01 0.01 59 1016.8
20211203183711 79 196 3.0 7.0 0.00 0.01 0.01 58 1016.8
20211203183211 79 182 2.0 3.0 0.00 0.01 0.01 58 1016.9
20211203182711 79 182 3.0 6.0 0.00 0.01 0.01 59 1017.1
20211203182212 79 189 2.0 5.0 0.00 0.01 0.01 58 1017.2
20211203181712 79 142 3.0 6.0 0.00 0.01 0.01 58 1017.3
20211203181212 79 174 3.0 6.0 0.00 0.01 0.01 57 1017.4
20211203180712 79 169 2.0 7.0 0.00 0.01 0.01 56 1017.5
20211203180212 78 204 1.0 5.0 0.00 0.01 0.01 54 1017.6
20211203175712 78 192 3.0 6.0 0.00 0.01 0.01 54 1017.6
20211203175212 78 178 3.0 9.0 0.00 0.01 0.01 53 1017.6
20211203174712 78 192 3.0 10.0 0.00 0.01 0.01 52 1017.6
20211203174212 78 111 4.0 7.0 0.00 0.01 0.01 52 1017.6
20211203173712 78 186 3.0 7.0 0.00 0.01 0.01 49 1017.7
20211203173212 78 161 3.0 8.0 0.00 0.01 0.01 43 1017.7
20211203172712 77 169 2.0 7.0 0.00 0.01 0.01 38 1017.8
20211203172212 77 151 3.0 12.0 0.00 0.01 0.01 35 1017.9
20211203171712 77 173 3.0 7.0 0.00 0.01 0.01 32 1018.0
20211203171212 76 195 3.0 6.0 0.00 0.01 0.01 26 1018.1
20211203170712 76 218 2.0 6.0 0.00 0.01 0.01 19 1018.2
20211203170212 76 66 1.0 7.0 0.00 0.01 0.01 1 1018.3
20211203165712 75 17 0.0 0.0 0.00 0.01 0.01 1 1018.5
20211203165212 75 150 0.0 0.0 0.00 0.01 0.01 1 1018.5
20211203164712 75 184 2.0 2.0 0.00 0.01 0.01 1 1018.6
20211203164212 74 157 2.0 8.0 0.00 0.01 0.01 1 1018.7
20211203163712 74 168 2.0 5.0 0.00 0.01 0.01 1 1018.8
20211203163212 73 179 2.0 6.0 0.00 0.01 0.01 1 1018.9
20211203162712 73 178 3.0 5.0 0.00 0.01 0.01 1 1018.9
20211203162212 73 168 3.0 9.0 0.00 0.01 0.01 1 1019.0
20211203161712 72 180 3.0 7.0 0.00 0.01 0.01 1 1018.9
20211203161212 72 181 4.0 9.0 0.00 0.01 0.01 1 1019.0
20211203160712 72 183 4.0 8.0 0.00 0.01 0.01 1 1018.9
20211203160212 71 178 2.0 7.0 0.00 0.01 0.01 1 1018.9
20211203155712 71 100 0.0 2.0 0.00 0.01 0.01 1 1018.9
20211203155212 71 173 1.0 0.0 0.00 0.01 0.01 1 1019.0
20211203154712 71 180 1.0 6.0 0.00 0.01 0.01 1 1018.9
20211203154212 71 177 1.0 2.0 0.00 0.01 0.01 1 1018.9
20211203153712 70 168 2.0 6.0 0.00 0.01 0.01 1 1019.0
20211203153212 70 172 1.0 6.0 0.00 0.01 0.01 1 1019.0
20211203152712 69 138 1.0 4.0 0.00 0.01 0.01 1 1019.0
20211203152212 69 165 1.0 5.0 0.00 0.01 0.01 1 1018.9
20211203151712 69 180 0.0 1.0 0.00 0.01 0.01 1 1018.8
20211203151212 68 151 0.0 2.0 0.00 0.01 0.01 1 1018.8
20211203150712 67 160 0.0 0.0 0.00 0.01 0.01 1 1018.8
20211203150212 67 161 0.0 0.0 0.00 0.01 0.01 1 1018.8
20211203145712 67 180 0.0 0.0 0.00 0.01 0.01 1 1018.9
20211203145212 67 181 0.0 0.0 0.00 0.01 0.01 1 1018.9
20211203144712 67 181 0.0 0.0 0.00 0.01 0.01 1 1018.9
20211203144212 66 181 0.0 0.0 0.00 0.01 0.01 1 1018.9
20211203143712 66 210 0.0 0.0 0.00 0.01 0.01 1 1018.9
20211203143212 66 210 0.0 0.0 0.00 0.01 0.01 1 1019.0
20211203142712 65 211 0.0 0.0 0.00 0.01 0.01 1 1018.9
20211203142212 65 211 0.0 0.0 0.00 0.01 0.01 1 1018.9
20211203141712 65 211 0.0 0.0 0.00 0.01 0.01 1 1018.9
20211203141212 65 211 0.0 0.0 0.00 0.01 0.01 1 1018.9
20211203140712 64 211 0.0 0.0 0.00 0.01 0.01 1 1018.7
20211203140212 64 211 0.0 0.0 0.00 0.01 0.01 1 1018.7
20211203135712 64 211 0.0 0.0 0.00 0.01 0.01 1 1018.6
20211203135213 64 211 0.0 0.0 0.00 0.01 0.01 1 1018.5
20211203134713 63 211 0.0 0.0 0.00 0.01 0.01 1 1018.5
20211203134213 63 211 0.0 0.0 0.00 0.01 0.01 1 1018.5
20211203133713 63 211 0.0 0.0 0.00 0.01 0.01 1 1018.4
20211203133213 63 211 0.0 0.0 0.00 0.01 0.01 1 1018.4
20211203132713 63 211 0.0 0.0 0.00 0.01 0.01 1 1018.4
20211203132213 62 211 0.0 0.0 0.00 0.01 0.01 1 1018.4
20211203131713 62 211 0.0 0.0 0.00 0.01 0.01 1 1018.4
20211203131213 62 211 0.0 0.0 0.00 0.01 0.01 1 1018.5
20211203130713 62 211 0.0 0.0 0.00 0.01 0.01 1 1018.4
20211203130213 62 211 0.0 0.0 0.00 0.01 0.01 1 1018.4
20211203125713 61 211 0.0 0.0 0.00 0.01 0.01 1 1018.4
20211203125213 61 211 0.0 0.0 0.00 0.01 0.01 1 1018.4
20211203124713 61 211 0.0 0.0 0.00 0.01 0.01 1 1018.4
20211203124213 61 211 0.0 0.0 0.00 0.01 0.01 1 1018.4
20211203123713 61 211 0.0 0.0 0.00 0.01 0.01 1 1018.3
20211203123213 61 211 0.0 0.0 0.00 0.01 0.01 1 1018.3
20211203122713 61 211 0.0 0.0 0.00 0.01 0.01 1 1018.2
20211203122213 61 211 0.0 0.0 0.00 0.01 0.01 1 1018.3
20211203121713 61 211 0.0 0.0 0.00 0.01 0.01 1 1018.2
20211203121213 61 211 0.0 0.0 0.00 0.01 0.01 1 1018.1
20211203120713 61 211 0.0 0.0 0.00 0.01 0.01 1 1018.0
20211203120213 61 211 0.0 0.0 0.00 0.01 0.01 1 1018.0
20211203115713 61 211 0.0 0.0 0.00 0.01 0.01 1 1018.0
20211203115213 61 211 0.0 0.0 0.00 0.01 0.01 1 1018.0
20211203114713 61 211 0.0 0.0 0.00 0.01 0.01 1 1017.9
20211203114213 61 211 0.0 0.0 0.00 0.01 0.01 1 1017.9
20211203113713 61 211 0.0 0.0 0.00 0.01 0.01 1 1017.9
20211203113213 61 211 0.0 0.0 0.00 0.01 0.01 1 1017.9
20211203112713 61 211 0.0 0.0 0.00 0.01 0.01 1 1018.0
20211203112213 61 211 0.0 0.0 0.00 0.01 0.01 1 1018.0
20211203111713 61 211 0.0 0.0 0.00 0.01 0.01 1 1017.9
20211203111213 61 211 0.0 0.0 0.00 0.01 0.01 1 1017.9
20211203110713 61 211 0.0 0.0 0.00 0.01 0.01 1 1018.0
20211203110213 60 211 0.0 0.0 0.00 0.02 0.01 1 1018.0
20211203105713 60 211 0.0 0.0 0.00 0.02 0.01 1 1018.0
20211203105213 60 211 0.0 0.0 0.00 0.02 0.01 1 1018.0
20211203104713 60 211 0.0 0.0 0.00 0.02 0.01 1 1018.0
20211203104213 60 211 0.0 0.0 0.00 0.02 0.01 1 1018.0
20211203103713 59 211 0.0 0.0 0.00 0.02 0.01 1 1018.0
20211203103213 59 211 0.0 0.0 0.00 0.02 0.01 1 1018.0
20211203102713 59 211 0.0 0.0 0.00 0.02 0.01 1 1018.0
20211203102213 59 211 0.0 0.0 0.00 0.02 0.01 1 1018.0
20211203101713 59 211 0.0 0.0 0.00 0.02 0.01 1 1018.1
20211203101213 59 211 0.0 0.0 0.00 0.02 0.01 1 1018.1
20211203100713 59 211 0.0 0.0 0.00 0.02 0.01 1 1018.1
20211203100213 59 211 0.0 0.0 0.00 0.02 0.01 1 1018.1
20211203095713 59 211 0.0 0.0 0.00 0.02 0.01 1 1018.1
20211203095213 59 211 0.0 0.0 0.00 0.02 0.01 1 1018.0
20211203094714 59 211 0.0 0.0 0.00 0.02 0.01 1 1017.9
20211203094213 59 211 0.0 0.0 0.00 0.02 0.01 1 1018.0
20211203093713 59 211 0.0 0.0 0.00 0.02 0.01 1 1017.9
20211203093214 59 211 0.0 0.0 0.00 0.02 0.01 1 1017.9
20211203092714 59 211 0.0 0.0 0.00 0.02 0.01 1 1017.9
20211203092214 59 211 0.0 0.0 0.00 0.02 0.01 1 1017.9
20211203091714 59 211 0.0 0.0 0.00 0.02 0.01 1 1018.0
20211203091214 59 211 0.0 0.0 0.00 0.02 0.01 1 1018.0
20211203090714 59 211 0.0 0.0 0.00 0.02 0.01 1 1018.1
20211203090214 59 211 0.0 0.0 0.00 0.02 0.01 1 1018.1
20211203085714 59 211 0.0 0.0 0.00 0.02 0.01 1 1018.1
20211203085214 60 211 0.0 0.0 0.01 0.02 0.01 1 1018.1
20211203084714 60 211 0.0 0.0 0.01 0.02 0.01 1 1018.1
20211203084214 60 211 0.0 0.0 0.01 0.02 0.01 1 1018.1
20211203083714 60 211 0.0 0.0 0.01 0.02 0.01 1 1018.1
20211203083214 60 211 0.0 0.0 0.01 0.02 0.01 1 1018.1
20211203082714 60 211 0.0 0.0 0.01 0.02 0.01 1 1018.1
20211203082214 60 211 0.0 0.0 0.01 0.02 0.01 1 1018.1
20211203081714 60 211 0.0 0.0 0.01 0.02 0.01 1 1018.2
20211203081214 60 211 0.0 0.0 0.01 0.02 0.01 1 1018.3
20211203080714 60 211 0.0 0.0 0.01 0.02 0.01 1 1018.3
20211203080214 61 211 0.0 0.0 0.01 0.02 0.01 1 1018.4
20211203075714 61 211 0.0 0.0 0.01 0.02 0.01 1 1018.4
20211203075214 61 211 0.0 0.0 0.00 0.01 0.00 1 1018.4
20211203074714 61 211 0.0 0.0 0.00 0.01 0.00 1 1018.5
20211203074214 61 211 0.0 0.0 0.00 0.01 0.00 1 1018.5
20211203073714 61 211 0.0 0.0 0.00 0.01 0.00 1 1018.5
20211203073214 61 211 0.0 0.0 0.00 0.01 0.00 1 1018.5
20211203072714 61 211 0.0 0.0 0.00 0.01 0.00 1 1018.4
20211203072214 62 211 0.0 0.0 0.00 0.01 0.00 1 1018.5
20211203071714 62 211 0.0 0.0 0.00 0.01 0.00 1 1018.5
20211203071214 62 211 0.0 0.0 0.00 0.01 0.00 1 1018.5
20211203070714 62 211 0.0 0.0 0.00 0.01 0.00 1 1018.5
20211203070214 62 211 0.0 0.0 0.00 0.01 0.00 1 1018.6
20211203065714 62 211 0.0 0.0 0.00 0.01 0.00 1 1018.6
20211203065214 62 211 0.0 0.0 0.00 0.01 0.00 1 1018.7
20211203064714 62 211 0.0 0.0 0.00 0.01 0.00 1 1018.7
20211203064214 62 211 0.0 0.0 0.00 0.01 0.00 1 1018.7
20211203063714 62 211 0.0 0.0 0.00 0.01 0.00 1 1018.8
20211203063214 62 211 0.0 0.0 0.00 0.01 0.00 1 1018.9
20211203062714 62 211 0.0 0.0 0.00 0.01 0.00 1 1018.9
20211203062214 62 211 0.0 0.0 0.00 0.01 0.00 1 1019.0
20211203061714 62 211 0.0 0.0 0.00 0.01 0.00 1 1019.0
20211203061214 62 211 0.0 0.0 0.00 0.01 0.00 1 1019.0
20211203060714 62 211 0.0 0.0 0.00 0.01 0.00 1 1019.0
20211203060214 62 211 0.0 0.0 0.00 0.01 0.00 1 1019.1
20211203055714 62 211 0.0 0.0 0.00 0.01 0.01 1 1019.1
20211203055214 62 211 0.0 0.0 0.00 0.01 0.01 1 1019.2
20211203054714 62 211 0.0 0.0 0.00 0.01 0.01 1 1019.2
20211203054214 62 211 0.0 0.0 0.00 0.01 0.01 1 1019.2
20211203053714 62 211 0.0 0.0 0.00 0.01 0.01 1 1019.2
20211203053214 62 211 0.0 0.0 0.00 0.01 0.01 1 1019.2
20211203052714 62 211 0.0 0.0 0.00 0.01 0.01 1 1019.4
20211203052214 62 211 0.0 0.0 0.00 0.01 0.01 1 1019.5
20211203051715 62 211 0.0 0.0 0.00 0.01 0.01 1 1019.4
20211203051215 62 211 0.0 0.0 0.00 0.01 0.01 1 1019.5
20211203050715 62 211 0.0 0.0 0.00 0.01 0.01 1 1019.5
20211203050215 62 211 0.0 0.0 0.00 0.01 0.01 1 1019.5
20211203045715 62 211 0.0 0.0 0.00 0.01 0.01 1 1019.5
20211203045215 62 211 0.0 0.0 0.00 0.01 0.01 1 1019.6
20211203044715 62 211 0.0 0.0 0.00 0.01 0.01 1 1019.6
20211203044215 62 211 0.0 0.0 0.00 0.01 0.01 1 1019.5
20211203043715 62 211 0.0 0.0 0.00 0.01 0.01 1 1019.5
20211203043215 62 211 0.0 0.0 0.00 0.01 0.01 1 1019.6
20211203042715 62 211 0.0 0.0 0.00 0.01 0.01 1 1019.6
20211203042215 62 211 0.0 0.0 0.00 0.01 0.01 1 1019.6
20211203041715 62 211 0.0 0.0 0.00 0.01 0.01 1 1019.5
20211203041215 62 211 0.0 0.0 0.00 0.01 0.01 1 1019.6
20211203040715 62 211 0.0 0.0 0.00 0.01 0.01 1 1019.6
20211203040215 62 211 0.0 0.0 0.00 0.01 0.01 1 1019.7
20211203035715 62 211 0.0 0.0 0.00 0.01 0.01 1 1019.7
20211203035215 62 211 0.0 0.0 0.00 0.01 0.01 1 1019.7
20211203034715 62 211 0.0 0.0 0.00 0.01 0.01 1 1019.7
20211203034215 62 211 0.0 0.0 0.00 0.01 0.01 1 1019.7
20211203033715 62 211 0.0 0.0 0.00 0.01 0.01 1 1019.7
20211203033215 62 211 0.0 0.0 0.00 0.01 0.01 1 1019.8
20211203032715 62 211 0.0 0.0 0.00 0.01 0.01 1 1019.8
20211203032215 63 211 0.0 0.0 0.00 0.01 0.01 1 1019.8
20211203031715 63 211 0.0 0.0 0.00 0.01 0.01 1 1019.8
20211203031215 63 211 0.0 0.0 0.00 0.01 0.01 1 1019.7
20211203030715 63 211 0.0 0.0 0.00 0.01 0.01 1 1019.8
20211203030215 63 211 0.0 0.0 0.00 0.01 0.01 1 1019.8
20211203025715 63 211 0.0 0.0 0.00 0.01 0.01 1 1019.8
20211203025215 63 211 0.0 0.0 0.00 0.01 0.01 1 1019.7
20211203024715 63 211 0.0 0.0 0.00 0.01 0.01 1 1019.7
20211203024215 63 211 0.0 0.0 0.00 0.01 0.01 1 1019.6
20211203023715 64 211 0.0 0.0 0.00 0.01 0.01 1 1019.7
20211203023215 64 211 0.0 0.0 0.00 0.01 0.01 1 1019.7
20211203022715 64 211 0.0 0.0 0.00 0.01 0.01 1 1019.7
20211203022215 64 211 0.0 0.0 0.00 0.01 0.01 1 1019.7
20211203021715 64 211 0.0 0.0 0.00 0.01 0.01 1 1019.6
20211203021215 64 211 0.0 0.0 0.00 0.01 0.01 1 1019.5
20211203020715 64 211 0.0 0.0 0.00 0.01 0.01 2 1019.5
20211203020215 65 211 0.0 0.0 0.00 0.01 0.01 5 1019.5
20211203015715 65 211 0.0 0.0 0.00 0.01 0.01 6 1019.5
20211203015215 65 211 0.0 0.0 0.00 0.01 0.01 8 1019.4
20211203014715 65 211 0.0 0.0 0.00 0.01 0.01 10 1019.4
20211203014215 65 211 0.0 0.0 0.00 0.01 0.01 13 1019.4
20211203013715 66 211 0.0 0.0 0.00 0.01 0.01 15 1019.4
20211203013215 66 211 0.0 0.0 0.00 0.01 0.01 17 1019.5
20211203012715 66 211 0.0 0.0 0.00 0.01 0.01 20 1019.4
20211203012215 66 211 0.0 0.0 0.00 0.01 0.01 23 1019.4
20211203011715 67 211 0.0 0.0 0.00 0.01 0.01 24 1019.2
20211203011215 67 211 0.0 0.0 0.00 0.01 0.01 26 1019.3
20211203010715 67 211 0.0 0.0 0.00 0.01 0.01 28 1019.3
20211203010215 68 211 0.0 0.0 0.00 0.01 0.01 30 1019.2
20211203005715 68 211 0.0 0.0 0.00 0.01 0.01 33 1019.2
20211203005216 68 211 0.0 0.0 0.00 0.01 0.01 35 1019.2
20211203004716 68 211 0.0 0.0 0.00 0.01 0.01 37 1019.2
20211203004216 69 211 0.0 0.0 0.00 0.01 0.01 38 1019.1
20211203003716 69 211 0.0 0.0 0.00 0.01 0.01 40 1019.0
20211203003216 69 211 0.0 0.0 0.00 0.01 0.01 43 1019.0
20211203002716 70 211 0.0 0.0 0.00 0.01 0.01 44 1019.0
20211203002216 70 211 0.0 0.0 0.00 0.01 0.01 44 1019.0
20211203001716 70 211 0.0 0.0 0.00 0.01 0.01 46 1019.0
20211203001216 71 211 0.0 0.0 0.00 0.01 0.01 47 1019.0
20211203000716 71 211 0.0 0.0 0.00 0.01 0.01 48 1019.0
20211203000216 71 211 0.0 0.0 0.00 0.01 0.01 50 1019.0
20211202235716 71 211 0.0 0.0 0.00 0.01 0.01 52 1019.0
20211202235216 72 211 0.0 0.0 0.00 0.01 0.01 54 1018.9
20211202234716 72 211 0.0 0.0 0.00 0.01 0.01 56 1018.9
20211202234216 72 211 0.0 0.0 0.00 0.01 0.01 57 1018.9
20211202233716 73 211 0.0 0.0 0.00 0.01 0.01 57 1018.9
20211202233216 73 211 0.0 0.0 0.00 0.01 0.01 58 1019.0
20211202232716 73 211 0.0 0.0 0.00 0.01 0.01 59 1018.9
20211202232216 73 211 0.0 0.0 0.00 0.01 0.01 60 1018.9
20211202231716 74 211 0.0 0.0 0.00 0.01 0.01 61 1018.9
20211202231216 74 211 0.0 0.0 0.00 0.01 0.01 62 1018.9
20211202230718 74 211 0.0 0.0 0.00 0.01 0.01 63 1018.9
20211202230216 74 211 0.0 0.0 0.00 0.01 0.01 63 1018.9
20211202225716 74 211 0.0 0.0 0.00 0.01 0.01 64 1018.9
20211202225216 74 200 0.0 0.0 0.00 0.01 0.01 64 1018.9